WZZ839 EHEH-LHBP

Flight info

Callsign WZZ839
Flight time N/A
Altitude 37000
Route VELNI DCT ONUNE DCT GMH DCT ESAMA DCT OSBIT DCT BARSU DCT EKSOS DCT LULAR DCT RUDAP DCT BUDEX DCT MAREG DCT ANEXA
Aircraft A21N/M-SDE3FGHIRWY/LB1

Departure

Time 2026-05-05 15:31
Airport Eindhoven Airport (EHEH)

Arrival

Time N/A
Airport Budapest Liszt Ferenc International Airport (LHBP)
Time Latitude Longitude Altitude Speed Heading
2026-05-05 14:59 51.45786 5.38966 83 ft 0 kts 124°
2026-05-05 15:09 51.45788 5.38962 83 ft 2 kts 124°
2026-05-05 15:09 51.45797 5.38942 83 ft 2 kts 124°
2026-05-05 15:09 51.45806 5.38923 83 ft 2 kts 140°
2026-05-05 15:09 51.45818 5.38910 83 ft 2 kts 155°
2026-05-05 15:10 51.45832 5.38903 83 ft 2 kts 172°
2026-05-05 15:10 51.45848 5.38903 83 ft 2 kts 188°
2026-05-05 15:10 51.45862 5.38909 83 ft 2 kts 205°
2026-05-05 15:10 51.45870 5.38916 83 ft 1 kts 214°
2026-05-05 15:11 51.45874 5.38921 83 ft 0 kts 216°
2026-05-05 15:12 51.45871 5.38917 83 ft 1 kts 213°
2026-05-05 15:13 51.45855 5.38900 83 ft 3 kts 214°
2026-05-05 15:13 51.45826 5.38868 83 ft 6 kts 214°
2026-05-05 15:13 51.45791 5.38814 83 ft 7 kts 246°
2026-05-05 15:13 51.45810 5.38727 83 ft 9 kts 306°
2026-05-05 15:14 51.45849 5.38639 83 ft 0 kts 304°
2026-05-05 15:14 51.45850 5.38638 83 ft 0 kts 304°
2026-05-05 15:16 51.45851 5.38634 83 ft 1 kts 304°
2026-05-05 15:17 51.45861 5.38612 83 ft 3 kts 304°
2026-05-05 15:17 51.45883 5.38561 83 ft 7 kts 305°
2026-05-05 15:17 51.45919 5.38481 83 ft 9 kts 307°
2026-05-05 15:17 51.45964 5.38386 83 ft 11 kts 306°
2026-05-05 15:18 51.45985 5.38267 83 ft 12 kts 239°
2026-05-05 15:18 51.45914 5.38183 83 ft 13 kts 213°
2026-05-05 15:18 51.45833 5.38090 83 ft 14 kts 213°
2026-05-05 15:18 51.45746 5.37990 83 ft 16 kts 213°
2026-05-05 15:19 51.45650 5.37885 83 ft 17 kts 213°
2026-05-05 15:19 51.45554 5.37777 83 ft 10 kts 232°
2026-05-05 15:19 51.45509 5.37720 83 ft 8 kts 210°
2026-05-05 15:19 51.45451 5.37664 83 ft 10 kts 213°
2026-05-05 15:20 51.45385 5.37591 83 ft 12 kts 214°
2026-05-05 15:20 51.45309 5.37503 83 ft 14 kts 216°
2026-05-05 15:20 51.45226 5.37409 83 ft 15 kts 214°
2026-05-05 15:20 51.45136 5.37312 83 ft 16 kts 215°
2026-05-05 15:21 51.45041 5.37205 83 ft 17 kts 215°
2026-05-05 15:21 51.44939 5.37090 83 ft 18 kts 214°
2026-05-05 15:21 51.44833 5.36971 83 ft 19 kts 215°
2026-05-05 15:21 51.44721 5.36846 83 ft 19 kts 214°
2026-05-05 15:22 51.44608 5.36719 83 ft 20 kts 215°
2026-05-05 15:22 51.44490 5.36588 83 ft 20 kts 214°
2026-05-05 15:22 51.44369 5.36453 83 ft 21 kts 214°
2026-05-05 15:22 51.44248 5.36316 83 ft 21 kts 215°
2026-05-05 15:23 51.44128 5.36182 83 ft 18 kts 213°
2026-05-05 15:23 51.44073 5.36122 83 ft 0 kts 214°
2026-05-05 15:23 51.44061 5.36109 83 ft 3 kts 214°
2026-05-05 15:23 51.44035 5.36083 83 ft 5 kts 212°
2026-05-05 15:24 51.43995 5.36072 83 ft 7 kts 146°
2026-05-05 15:24 51.43981 5.36094 83 ft 0 kts 129°
2026-05-05 15:29 51.43981 5.36095 83 ft 0 kts 129°
2026-05-05 15:29 51.43972 5.36111 83 ft 2 kts 129°
2026-05-05 15:29 51.43957 5.36147 83 ft 4 kts 118°
2026-05-05 15:29 51.43944 5.36208 83 ft 6 kts 89°
2026-05-05 15:30 51.43966 5.36278 83 ft 7 kts 38°
2026-05-05 15:30 51.44027 5.36346 83 ft 24 kts 36°
2026-05-05 15:30 51.44392 5.36756 83 ft 101 kts 33°
2026-05-05 15:30 51.45159 5.37614 86 ft 162 kts 34°
2026-05-05 15:31 51.46105 5.38671 703 ft 166 kts 35°
2026-05-05 15:31 51.47012 5.39695 1516 ft 164 kts 36°
2026-05-05 15:31 51.47929 5.40710 2332 ft 160 kts 34°
2026-05-05 15:31 51.48859 5.41747 2885 ft 170 kts 35°
2026-05-05 15:32 51.49860 5.42888 3339 ft 186 kts 35°
2026-05-05 15:32 51.50900 5.44236 3725 ft 207 kts 51°
2026-05-05 15:32 51.51461 5.46452 4206 ft 228 kts 85°
2026-05-05 15:32 51.51167 5.48989 4974 ft 238 kts 105°
2026-05-05 15:33 51.50652 5.51529 5701 ft 245 kts 105°
2026-05-05 15:33 51.50142 5.54126 6557 ft 247 kts 105°
2026-05-05 15:33 51.49636 5.56755 7372 ft 250 kts 104°
2026-05-05 15:33 51.49211 5.59490 7959 ft 263 kts 101°
2026-05-05 15:34 51.48814 5.62421 8483 ft 278 kts 101°
2026-05-05 15:34 51.48560 5.65499 9240 ft 283 kts 92°
2026-05-05 15:34 51.48628 5.68665 10069 ft 286 kts 84°
2026-05-05 15:34 51.48865 5.71840 10646 ft 298 kts 83°
2026-05-05 15:35 51.49146 5.75230 11042 ft 315 kts 83°
2026-05-05 15:35 51.49442 5.78795 11391 ft 333 kts 83°
2026-05-05 15:35 51.49749 5.82564 11815 ft 348 kts 83°
2026-05-05 15:35 51.50057 5.86384 12509 ft 352 kts 83°
2026-05-05 15:36 51.50368 5.90290 13283 ft 354 kts 83°
2026-05-05 15:36 51.50676 5.94205 13998 ft 358 kts 83°
2026-05-05 15:36 51.50984 5.98199 14688 ft 361 kts 84°
2026-05-05 15:36 51.51284 6.02164 15329 ft 366 kts 84°
2026-05-05 15:37 51.51592 6.06245 15986 ft 369 kts 84°
2026-05-05 15:37 51.51904 6.10336 16616 ft 373 kts 84°
2026-05-05 15:37 51.52219 6.14462 17206 ft 378 kts 84°
2026-05-05 15:37 51.52389 6.18663 17788 ft 381 kts 90°
2026-05-05 15:38 51.52246 6.22952 18364 ft 385 kts 97°
2026-05-05 15:38 51.51817 6.27161 18939 ft 388 kts 102°
2026-05-05 15:38 51.51291 6.31391 19517 ft 391 kts 103°
2026-05-05 15:38 51.50739 6.35696 20088 ft 394 kts 103°
2026-05-05 15:39 51.50191 6.39973 20634 ft 397 kts 103°
2026-05-05 15:39 51.49638 6.44298 21167 ft 400 kts 103°
2026-05-05 15:39 51.49083 6.48660 21687 ft 403 kts 103°
2026-05-05 15:39 51.48518 6.53101 22193 ft 406 kts 103°
2026-05-05 15:40 51.47958 6.57499 22667 ft 410 kts 103°
2026-05-05 15:40 51.47385 6.61983 23163 ft 412 kts 103°
2026-05-05 15:40 51.46807 6.66499 23633 ft 415 kts 104°
2026-05-05 15:40 51.46229 6.71017 24104 ft 418 kts 104°
2026-05-05 15:41 51.45643 6.75579 24562 ft 421 kts 104°
2026-05-05 15:41 51.45047 6.80203 25006 ft 423 kts 104°
2026-05-05 15:41 51.44452 6.84795 25462 ft 425 kts 104°
2026-05-05 15:41 51.43852 6.89409 25882 ft 428 kts 104°
2026-05-05 15:42 51.43238 6.94118 26273 ft 431 kts 104°
2026-05-05 15:42 51.42632 6.98755 26648 ft 433 kts 104°
2026-05-05 15:42 51.42007 7.03524 27037 ft 435 kts 105°
2026-05-05 15:42 51.41385 7.08249 27391 ft 438 kts 105°
2026-05-05 15:43 51.40753 7.13030 27746 ft 440 kts 105°
2026-05-05 15:43 51.40120 7.17812 28071 ft 442 kts 105°
2026-05-05 15:43 51.39481 7.22609 28407 ft 444 kts 105°
2026-05-05 15:43 51.38836 7.27440 28745 ft 446 kts 105°
2026-05-05 15:44 51.38182 7.32218 29166 ft 444 kts 107°
2026-05-05 15:44 51.37329 7.36989 29625 ft 441 kts 111°
2026-05-05 15:44 51.36266 7.41489 30043 ft 438 kts 116°
2026-05-05 15:44 51.34964 7.45858 30469 ft 434 kts 121°
2026-05-05 15:45 51.33450 7.50016 30863 ft 431 kts 126°
2026-05-05 15:45 51.31811 7.54001 31245 ft 430 kts 127°
2026-05-05 15:45 51.30160 7.57957 31615 ft 430 kts 127°
2026-05-05 15:45 51.28507 7.61909 31973 ft 429 kts 127°
2026-05-05 15:46 51.26852 7.65865 32363 ft 427 kts 128°
2026-05-05 15:46 51.25229 7.69765 32747 ft 425 kts 128°
2026-05-05 15:46 51.23602 7.73665 33088 ft 424 kts 128°
2026-05-05 15:46 51.21956 7.77597 33435 ft 423 kts 129°
2026-05-05 15:47 51.20276 7.81334 33771 ft 419 kts 131°
2026-05-05 15:47 51.19073 7.83761 33991 ft 417 kts 134°
2026-05-05 15:47 51.16528 7.88351 34382 ft 414 kts 138°
2026-05-05 15:47 51.14505 7.91558 34647 ft 411 kts 141°
2026-05-05 15:48 51.12380 7.94575 34915 ft 409 kts 143°
2026-05-05 15:48 51.10194 7.97361 35123 ft 407 kts 146°
2026-05-05 15:48 51.07926 8.00049 35271 ft 407 kts 147°
2026-05-05 15:48 51.05653 8.02748 35373 ft 408 kts 147°
2026-05-05 15:49 51.03370 8.05458 35485 ft 410 kts 147°
2026-05-05 15:49 51.01094 8.08157 35606 ft 411 kts 147°
2026-05-05 15:49 50.98807 8.10864 35727 ft 411 kts 146°
2026-05-05 15:49 50.96518 8.13569 35840 ft 412 kts 146°
2026-05-05 15:50 50.94222 8.16279 35946 ft 413 kts 146°
2026-05-05 15:50 50.91927 8.18985 36069 ft 413 kts 146°
2026-05-05 15:50 50.89635 8.21683 36153 ft 414 kts 146°
2026-05-05 15:51 50.85008 8.27090 36325 ft 416 kts 146°
2026-05-05 15:51 50.80352 8.32530 36489 ft 418 kts 146°
2026-05-05 15:52 50.75661 8.38005 36656 ft 420 kts 146°
2026-05-05 15:52 50.73344 8.40707 36770 ft 421 kts 146°
2026-05-05 15:52 50.70981 8.43460 36789 ft 421 kts 146°
2026-05-05 15:53 50.66288 8.48922 36796 ft 422 kts 146°
2026-05-05 15:53 50.61562 8.54402 36795 ft 422 kts 146°
2026-05-05 15:54 50.56844 8.59865 36793 ft 421 kts 146°
2026-05-05 15:54 50.52150 8.65287 36794 ft 421 kts 147°
2026-05-05 15:55 50.47453 8.70725 36799 ft 421 kts 147°
2026-05-05 15:55 50.42764 8.76118 36794 ft 421 kts 147°
2026-05-05 15:56 50.38223 8.81956 36785 ft 424 kts 140°
2026-05-05 15:56 50.34307 8.88821 36784 ft 428 kts 131°
2026-05-05 15:57 50.31095 8.96659 36791 ft 433 kts 122°
2026-05-05 15:57 50.28527 9.05189 36794 ft 435 kts 118°
2026-05-05 15:58 50.26045 9.13776 36789 ft 434 kts 118°
2026-05-05 15:58 50.23560 9.22317 36790 ft 434 kts 118°
2026-05-05 15:59 50.21078 9.30811 36805 ft 434 kts 118°
2026-05-05 15:59 50.18571 9.39354 36801 ft 434 kts 118°
2026-05-05 16:00 50.16049 9.47910 36795 ft 435 kts 118°
2026-05-05 16:00 50.13526 9.56439 36788 ft 434 kts 118°
2026-05-05 16:01 50.11015 9.64902 36805 ft 434 kts 118°
2026-05-05 16:01 50.08493 9.73395 36806 ft 433 kts 119°
2026-05-05 16:02 50.06133 9.82008 36802 ft 435 kts 115°
2026-05-05 16:02 50.04007 9.90789 36800 ft 435 kts 115°
2026-05-05 16:03 50.01875 9.99566 36804 ft 436 kts 115°
2026-05-05 16:03 49.99738 10.08321 36806 ft 435 kts 115°
2026-05-05 16:04 49.97588 10.17088 36790 ft 436 kts 115°
2026-05-05 16:04 49.95425 10.25872 36791 ft 436 kts 115°
2026-05-05 16:05 49.93262 10.34624 36805 ft 435 kts 115°
2026-05-05 16:05 49.91082 10.43329 36791 ft 435 kts 115°
2026-05-05 16:06 49.88825 10.52023 36776 ft 434 kts 116°
2026-05-05 16:06 49.86545 10.60709 36774 ft 435 kts 116°
2026-05-05 16:07 49.84292 10.69332 36771 ft 434 kts 116°
2026-05-05 16:07 49.82048 10.77954 36767 ft 435 kts 116°
2026-05-05 16:08 49.79786 10.86605 36761 ft 435 kts 116°
2026-05-05 16:08 49.77515 10.95246 36761 ft 434 kts 116°
2026-05-05 16:09 49.75234 11.03892 36756 ft 435 kts 116°
2026-05-05 16:09 49.72945 11.12542 36770 ft 436 kts 116°
2026-05-05 16:10 49.70654 11.21165 36764 ft 438 kts 116°
2026-05-05 16:10 49.68340 11.29847 36762 ft 441 kts 116°
2026-05-05 16:11 49.66005 11.38600 36763 ft 442 kts 115°
2026-05-05 16:12 49.62101 11.56677 36756 ft 446 kts 111°
2026-05-05 16:13 49.57363 11.79399 36744 ft 450 kts 111°
2026-05-05 16:13 49.55433 11.88576 36746 ft 451 kts 111°
2026-05-05 16:14 49.51554 12.06860 36757 ft 452 kts 111°
2026-05-05 16:15 49.47634 12.25173 36754 ft 452 kts 111°
2026-05-05 16:16 49.43684 12.43451 36755 ft 452 kts 111°
2026-05-05 16:17 49.40693 12.57176 36756 ft 453 kts 111°
2026-05-05 16:18 49.37689 12.70895 36749 ft 452 kts 111°
2026-05-05 16:19 49.34559 12.84408 36748 ft 451 kts 114°
2026-05-05 16:19 49.31228 12.97880 36750 ft 452 kts 113°
2026-05-05 16:20 49.26791 13.15868 36760 ft 453 kts 113°
2026-05-05 16:22 49.21022 13.38268 36765 ft 455 kts 115°
2026-05-05 16:23 49.16193 13.56068 36746 ft 454 kts 114°
2026-05-05 16:23 49.12571 13.69414 36746 ft 454 kts 115°
2026-05-05 16:24 49.10149 13.78329 36743 ft 455 kts 114°
2026-05-05 16:25 49.06502 13.91642 36752 ft 455 kts 114°
2026-05-05 16:25 49.02855 14.04878 36737 ft 455 kts 114°
2026-05-05 16:26 48.97923 14.22624 36727 ft 457 kts 114°
2026-05-05 16:27 48.95452 14.31470 36728 ft 457 kts 114°
2026-05-05 16:27 48.93000 14.40361 36725 ft 457 kts 114°
2026-05-05 16:28 48.90572 14.49269 36722 ft 458 kts 113°
2026-05-05 16:28 48.88102 14.58215 36726 ft 459 kts 114°
2026-05-05 16:29 48.85627 14.67113 36727 ft 459 kts 114°
2026-05-05 16:29 48.83169 14.75999 36721 ft 460 kts 114°
2026-05-05 16:30 48.80687 14.84941 36716 ft 460 kts 114°
2026-05-05 16:30 48.78188 14.93909 36712 ft 461 kts 114°
2026-05-05 16:31 48.75697 15.02811 36712 ft 462 kts 114°
2026-05-05 16:31 48.73192 15.11735 36710 ft 461 kts 114°
2026-05-05 16:32 48.70690 15.20614 36713 ft 461 kts 114°
2026-05-05 16:32 48.68173 15.29505 36716 ft 462 kts 114°
2026-05-05 16:33 48.65626 15.38472 36718 ft 462 kts 114°
2026-05-05 16:33 48.63097 15.47346 36722 ft 462 kts 114°
2026-05-05 16:34 48.60560 15.56211 36720 ft 462 kts 114°
2026-05-05 16:34 48.58015 15.65070 36720 ft 461 kts 115°
2026-05-05 16:35 48.55470 15.73929 36720 ft 461 kts 115°
2026-05-05 16:35 48.52926 15.82736 36724 ft 461 kts 115°
2026-05-05 16:36 48.50342 15.91643 36722 ft 461 kts 115°
2026-05-05 16:36 48.47772 16.00465 36724 ft 462 kts 115°
2026-05-05 16:37 48.45188 16.09298 36724 ft 462 kts 115°
2026-05-05 16:37 48.42605 16.18094 36727 ft 463 kts 115°
2026-05-05 16:38 48.40007 16.26917 36731 ft 462 kts 115°
2026-05-05 16:38 48.37384 16.35788 36733 ft 462 kts 115°
2026-05-05 16:39 48.34779 16.44567 36737 ft 461 kts 115°
2026-05-05 16:39 48.32162 16.53355 36735 ft 462 kts 115°
2026-05-05 16:40 48.29559 16.62066 36744 ft 461 kts 115°
2026-05-05 16:40 48.26928 16.70857 36747 ft 462 kts 115°
2026-05-05 16:41 48.24298 16.79619 36754 ft 462 kts 115°
2026-05-05 16:41 48.21650 16.88386 36764 ft 462 kts 115°
2026-05-05 16:42 48.19088 16.97189 36768 ft 462 kts 112°
2026-05-05 16:42 48.17048 17.06232 36783 ft 462 kts 108°
2026-05-05 16:43 48.15091 17.15401 36730 ft 463 kts 108°
2026-05-05 16:43 48.14107 17.19992 36460 ft 461 kts 108°
2026-05-05 16:43 48.13134 17.24513 36226 ft 458 kts 108°
2026-05-05 16:44 48.12167 17.28989 35996 ft 456 kts 108°
2026-05-05 16:44 48.11192 17.33487 35763 ft 454 kts 108°
2026-05-05 16:44 48.10218 17.37963 35525 ft 452 kts 108°
2026-05-05 16:44 48.09252 17.42395 35298 ft 453 kts 108°
2026-05-05 16:45 48.08271 17.46888 35017 ft 453 kts 108°
2026-05-05 16:45 48.07301 17.51323 34620 ft 454 kts 108°
2026-05-05 16:45 48.06316 17.55818 34014 ft 455 kts 108°
2026-05-05 16:45 48.05330 17.60306 33361 ft 455 kts 109°
2026-05-05 16:46 48.04354 17.64741 32694 ft 456 kts 109°
2026-05-05 16:46 48.03360 17.69253 32000 ft 457 kts 109°
2026-05-05 16:46 48.02370 17.73745 31295 ft 458 kts 109°
2026-05-05 16:46 48.01326 17.78215 30582 ft 458 kts 115°
2026-05-05 16:47 47.99812 17.82320 30045 ft 452 kts 127°
2026-05-05 16:47 47.97910 17.85969 29457 ft 449 kts 131°
2026-05-05 16:47 47.95909 17.89565 28820 ft 449 kts 130°
2026-05-05 16:47 47.94257 17.93494 27859 ft 457 kts 118°
2026-05-05 16:48 47.92886 17.97766 26564 ft 460 kts 115°
2026-05-05 16:48 47.91581 18.02099 25108 ft 459 kts 115°
2026-05-05 16:48 47.90293 18.06335 23889 ft 451 kts 115°
2026-05-05 16:48 47.88997 18.10485 22773 ft 442 kts 116°
2026-05-05 16:49 47.87682 18.14582 21620 ft 433 kts 117°
2026-05-05 16:49 47.86392 18.18556 20459 ft 426 kts 117°
2026-05-05 16:49 47.85134 18.22407 19322 ft 419 kts 117°
2026-05-05 16:49 47.83869 18.26270 18177 ft 412 kts 117°
2026-05-05 16:50 47.82649 18.29989 17346 ft 397 kts 117°
2026-05-05 16:50 47.81469 18.33588 16742 ft 380 kts 118°
2026-05-05 16:50 47.80330 18.37051 16166 ft 363 kts 118°
2026-05-05 16:50 47.79252 18.40325 15632 ft 348 kts 118°
2026-05-05 16:51 47.78219 18.43456 15096 ft 338 kts 119°
2026-05-05 16:51 47.77189 18.46569 14697 ft 333 kts 119°
2026-05-05 16:51 47.76172 18.49637 14333 ft 327 kts 119°
2026-05-05 16:51 47.75183 18.52619 13989 ft 323 kts 120°
2026-05-05 16:52 47.74196 18.55595 13650 ft 318 kts 120°
2026-05-05 16:52 47.73233 18.58493 13317 ft 313 kts 120°
2026-05-05 16:52 47.72286 18.61337 12995 ft 308 kts 120°
2026-05-05 16:52 47.71342 18.64172 12523 ft 304 kts 120°
2026-05-05 16:53 47.70396 18.67009 11838 ft 312 kts 121°
2026-05-05 16:53 47.69436 18.69893 11154 ft 319 kts 121°
2026-05-05 16:53 47.68440 18.72883 10459 ft 325 kts 121°
2026-05-05 16:53 47.67441 18.75876 9774 ft 330 kts 121°
2026-05-05 16:54 47.66413 18.78950 9085 ft 335 kts 121°
2026-05-05 16:54 47.65396 18.81988 8377 ft 329 kts 121°
2026-05-05 16:54 47.64396 18.84984 7655 ft 319 kts 121°
2026-05-05 16:54 47.63432 18.87861 6929 ft 313 kts 121°
2026-05-05 16:55 47.62477 18.90697 6069 ft 309 kts 120°
2026-05-05 16:55 47.61528 18.93509 5207 ft 306 kts 120°
2026-05-05 16:55 47.60585 18.96285 4362 ft 302 kts 122°
2026-05-05 16:55 47.59414 18.98743 3775 ft 286 kts 134°
2026-05-05 16:56 47.58099 19.00847 3523 ft 272 kts 137°
2026-05-05 16:56 47.56833 19.02804 3490 ft 255 kts 137°
2026-05-05 16:56 47.55654 19.04649 3483 ft 239 kts 137°
2026-05-05 16:56 47.54548 19.06409 3480 ft 232 kts 137°
2026-05-05 16:57 47.53451 19.08171 3484 ft 232 kts 136°
2026-05-05 16:57 47.52379 19.09907 3473 ft 231 kts 136°
2026-05-05 16:57 47.51302 19.11673 3127 ft 232 kts 136°
2026-05-05 16:57 47.50224 19.13456 2412 ft 241 kts 136°
2026-05-05 16:58 47.49083 19.15296 1634 ft 242 kts 137°
2026-05-05 16:58 47.47973 19.17053 1271 ft 226 kts 137°
2026-05-05 16:58 47.46981 19.18665 1107 ft 202 kts 136°
2026-05-05 16:58 47.46111 19.20100 969 ft 180 kts 137°
2026-05-05 16:59 47.45278 19.21414 607 ft 169 kts 136°
2026-05-05 16:59 47.44534 19.22619 451 ft 149 kts 135°
2026-05-05 16:59 47.43899 19.23633 442 ft 106 kts 130°
2026-05-05 16:59 47.43571 19.24167 435 ft 55 kts 126°